FW7213 Weather Reports


Display with metric or nautical units.
time (UTC)temp
F
wind
direction
speed
MPH
gust
MPH
rain 1hr
in
rain 24hr
in
rain mn
in
humidity
%
barometer
mb
20260902045559 76 0 0.0 0.0 0.00 0.00 0.00 93 1018.1
20260902045058 76 0 0.0 0.0 0.00 0.00 0.00 93 1018.2
20260902044629 77 0 0.0 0.0 0.00 0.00 0.00 93 1018.3
20260902044059 77 0 0.0 0.0 0.00 0.00 0.00 93 1018.3
20260902043558 77 0 0.0 0.0 0.00 0.00 0.00 93 1018.4
20260902043059 77 0 0.0 0.0 0.00 0.00 0.00 93 1018.4
20260902042556 77 0 0.0 0.0 0.00 0.00 0.00 92 1018.4
20260902042055 77 0 0.0 0.0 0.00 0.00 0.00 92 1018.4
20260902041604 77 0 0.0 1.0 0.00 0.00 0.00 92 1018.4
20260902041057 77 0 0.0 1.0 0.00 0.00 0.00 92 1018.4
20260902040558 78 0 0.0 0.0 0.00 0.00 0.00 91 1018.4
20260902040106 78 0 0.0 0.0 0.00 0.00 0.00 91 1018.4
20260902035558 78 0 0.0 0.0 0.00 0.00 0.00 91 1018.5
20260902035058 78 0 0.0 0.0 0.00 0.00 0.00 90 1018.5
20260902034603 78 0 0.0 0.0 0.00 0.00 0.00 90 1018.5
20260902034058 78 0 0.0 0.0 0.00 0.00 0.00 90 1018.6
20260902033555 78 0 0.0 0.0 0.00 0.00 0.00 89 1018.6
20260902033107 78 0 0.0 1.0 0.00 0.00 0.00 89 1018.5
20260902032559 79 0 0.0 1.0 0.00 0.00 0.00 89 1018.5
20260902032056 79 0 0.0 0.0 0.00 0.00 0.00 89 1018.6
20260902031619 79 0 0.0 1.0 0.00 0.00 0.00 92 1018.5
20260902031058 79 0 0.0 1.0 0.00 0.00 0.00 89 1018.5
20260902030557 79 0 0.0 1.0 0.00 0.00 0.00 90 1018.5
20260902030108 79 0 0.0 0.0 0.00 0.00 0.00 90 1018.4
20260902025559 79 0 0.0 0.0 0.00 0.00 0.00 90 1018.5
20260902025056 79 0 0.0 0.0 0.00 0.00 0.00 89 1018.5
20260902024604 79 0 0.0 0.0 0.00 0.00 0.00 89 1018.4
20260902024055 79 0 0.0 0.0 0.00 0.00 0.00 88 1018.5
20260902023555 79 0 0.0 1.0 0.00 0.00 0.00 88 1018.4
20260902023107 79 0 0.0 1.0 0.00 0.00 0.00 87 1018.3
20260902022558 79 0 0.0 0.0 0.00 0.00 0.00 88 1018.3
20260902022055 80 0 0.0 0.0 0.00 0.00 0.00 88 1018.4
20260902021605 80 0 0.0 0.0 0.00 0.00 0.00 88 1018.3
20260902021056 80 0 0.0 0.0 0.00 0.00 0.00 88 1018.3
20260902020556 80 0 0.0 0.0 0.00 0.00 0.00 86 1018.2
20260902020105 80 0 0.0 0.0 0.00 0.00 0.00 85 1018.1
20260902015601 81 0 0.0 0.0 0.00 0.00 0.00 85 1018.2
20260902015058 81 0 0.0 0.0 0.00 0.00 0.00 85 1018.2
20260902014603 81 0 0.0 0.0 0.00 0.00 0.00 85 1018.2
20260902014056 81 0 0.0 0.0 0.00 0.00 0.00 84 1018.1
20260902013558 82 0 0.0 0.0 0.00 0.00 0.00 82 1017.9
20260902013112 82 0 0.0 0.0 0.00 0.00 0.00 82 1017.9
20260902012556 82 0 0.0 0.0 0.00 0.00 0.00 81 1017.9
20260902012057 82 0 0.0 0.0 0.00 0.00 0.00 80 1017.8
20260902011602 83 0 0.0 0.0 0.00 0.00 0.00 80 1017.6
20260902011058 83 0 0.0 1.0 0.00 0.00 0.00 79 1017.5
20260902010558 83 0 0.0 1.0 0.00 0.00 0.00 78 1017.4
20260902010105 84 147 0.0 0.0 0.00 0.00 0.00 81 1017.4
20260902005555 84 0 0.0 0.0 0.00 0.00 0.00 76 1017.3
20260902005056 85 0 0.0 0.0 0.00 0.00 0.00 75 1017.3
20260902004606 85 0 0.0 2.0 0.00 0.00 0.00 74 1017.3
20260902004059 85 0 0.0 4.0 0.00 0.00 0.00 73 1017.3
20260902003555 86 0 0.0 4.0 0.00 0.00 0.00 72 1017.3
20260902003101 86 0 2.0 5.0 0.00 0.00 0.00 71 1017.2
20260902002558 86 104 1.0 5.0 0.00 0.00 0.00 70 1017.2
20260902002058 87 93 2.0 8.0 0.00 0.00 0.00 69 1017.2
20260902001605 86 120 1.0 8.0 0.00 0.00 0.00 73 1017.2
20260902001058 87 113 0.0 1.0 0.00 0.00 0.00 74 1017.1
20260902000558 87 0 0.0 1.0 0.00 0.00 0.00 73 1016.8
20260901235559 88 0 0.0 0.0 0.00 0.00 0.00 73 1016.8
20260901235058 89 0 0.0 2.0 0.00 0.00 0.00 66 1016.7
20260901234607 89 0 0.0 2.0 0.00 0.00 0.00 71 1016.8
20260901234104 91 141 0.0 2.0 0.00 0.00 0.00 65 1016.8
20260901233558 91 0 0.0 2.0 0.00 0.00 0.00 60 1016.8
20260901233134 92 0 0.0 2.0 0.00 0.00 0.00 58 1016.7
20260901232558 92 0 0.0 2.0 0.00 0.00 0.00 57 1016.8
20260901232102 92 0 0.0 2.0 0.00 0.00 0.00 60 1016.8
20260901231616 93 91 0.0 2.0 0.00 0.00 0.00 59 1016.8
20260901231058 93 0 0.0 2.0 0.00 0.00 0.00 56 1016.7
20260901230556 93 0 0.0 4.0 0.00 0.00 0.00 55 1016.7
20260901230110 93 91 0.0 4.0 0.00 0.00 0.00 55 1016.8
20260901225557 93 92 0.0 2.0 0.00 0.00 0.00 55 1016.8
20260901225055 93 0 0.0 2.0 0.00 0.00 0.00 55 1016.8
20260901224601 93 85 0.0 2.0 0.00 0.00 0.00 54 1016.8
20260901224100 93 95 0.0 5.0 0.00 0.00 0.00 54 1016.8
20260901223601 93 0 1.0 5.0 0.00 0.00 0.00 56 1016.8
20260901223103 94 0 0.0 3.0 0.00 0.00 0.00 57 1016.8
20260901222600 94 109 0.0 3.0 0.00 0.00 0.00 55 1016.8
20260901222054 94 109 0.0 3.0 0.00 0.00 0.00 56 1016.9
20260901221612 95 0 0.0 3.0 0.00 0.00 0.00 56 1016.9
20260901221056 94 84 0.0 3.0 0.00 0.00 0.00 56 1016.8
20260901220559 94 0 1.0 4.0 0.00 0.00 0.00 54 1016.7
20260901215558 95 0 0.0 2.0 0.00 0.00 0.00 58 1016.6
20260901215055 95 0 0.0 3.0 0.00 0.00 0.00 57 1016.7
20260901214602 94 0 0.0 7.0 0.00 0.00 0.00 59 1016.7
20260901214055 95 98 0.0 7.0 0.00 0.00 0.00 57 1016.7
20260901213555 94 42 3.0 7.0 0.00 0.00 0.00 59 1016.8
20260901213107 94 92 0.0 5.0 0.00 0.00 0.00 55 1016.6
20260901212559 94 79 1.0 6.0 0.00 0.00 0.00 60 1016.8
20260901212056 94 163 2.0 6.0 0.00 0.00 0.00 60 1016.8
20260901211600 93 32 0.0 4.0 0.00 0.00 0.00 59 1016.8
20260901211056 92 0 1.0 4.0 0.00 0.00 0.00 65 1016.8
20260901210600 91 91 0.0 3.0 0.00 0.00 0.00 62 1016.9
20260901210058 90 0 0.0 5.0 0.00 0.00 0.00 63 1016.9
20260901205555 91 91 0.0 5.0 0.00 0.00 0.00 62 1016.9
20260901205057 91 0 1.0 5.0 0.00 0.00 0.00 64 1016.8
20260901204602 92 125 2.0 8.0 0.00 0.00 0.00 59 1016.8
20260901204055 93 100 2.0 8.0 0.00 0.00 0.00 60 1016.8
20260901203602 96 174 1.0 5.0 0.00 0.00 0.00 54 1016.7
20260901203106 96 30 0.0 8.0 0.00 0.00 0.00 57 1016.7
20260901202600 96 103 2.0 8.0 0.00 0.00 0.00 59 1016.7
20260901202058 95 0 4.0 8.0 0.00 0.00 0.00 56 1016.8
20260901201605 95 231 1.0 5.0 0.00 0.00 0.00 59 1017.0
20260901201056 94 127 2.0 9.0 0.00 0.00 0.00 55 1017.1
20260901200555 94 91 0.0 9.0 0.00 0.00 0.00 56 1017.1
20260901200059 94 0 3.0 9.0 0.00 0.00 0.00 60 1017.4
20260901195558 94 83 3.0 7.0 0.00 0.00 0.00 59 1017.3
20260901195056 95 96 2.0 5.0 0.00 0.00 0.00 57 1017.4
20260901194607 96 65 0.0 4.0 0.00 0.00 0.00 58 1017.4
20260901194056 96 111 1.0 3.0 0.00 0.00 0.00 56 1017.5
20260901193555 96 259 0.0 3.0 0.00 0.00 0.00 54 1017.5
20260901193106 95 341 0.0 4.0 0.00 0.00 0.00 57 1017.6
20260901192559 95 6 0.0 4.0 0.00 0.00 0.00 57 1017.6
20260901192058 94 30 1.0 4.0 0.00 0.00 0.00 56 1017.7
20260901191601 94 86 1.0 4.0 0.00 0.00 0.00 60 1017.8
20260901191056 93 143 1.0 4.0 0.00 0.00 0.00 61 1017.9
20260901190558 91 0 0.0 3.0 0.00 0.00 0.00 62 1018.1
20260901190059 90 0 0.0 3.0 0.00 0.00 0.00 67 1018.2
20260901185556 90 0 0.0 3.0 0.00 0.00 0.00 64 1018.3
20260901185058 91 0 0.0 3.0 0.00 0.00 0.00 66 1018.4
20260901184607 91 0 0.0 5.0 0.00 0.00 0.00 66 1018.5
20260901184059 93 0 1.0 5.0 0.00 0.00 0.00 60 1018.5
20260901183557 94 98 2.0 5.0 0.00 0.00 0.00 57 1018.7
20260901183121 94 0 2.0 5.0 0.00 0.00 0.00 58 1018.7
20260901182600 93 165 1.0 3.0 0.00 0.00 0.00 63 1018.8
20260901182058 92 75 0.0 5.0 0.00 0.00 0.00 65 1018.8
20260901181602 92 0 0.0 5.0 0.00 0.00 0.00 65 1018.9
20260901181055 93 101 2.0 5.0 0.00 0.00 0.00 62 1018.9
20260901180558 93 151 1.0 5.0 0.00 0.00 0.00 63 1018.9
20260901180104 92 116 1.0 6.0 0.00 0.00 0.00 64 1019.0
20260901175556 93 78 2.0 6.0 0.00 0.00 0.00 62 1019.1
20260901175056 92 103 2.0 6.0 0.00 0.00 0.00 61 1019.1
20260901174607 93 139 2.0 5.0 0.00 0.00 0.00 62 1019.2
20260901174059 92 0 1.0 5.0 0.00 0.00 0.00 62 1019.3
20260901173601 91 142 1.0 5.0 0.00 0.00 0.00 67 1019.3
20260901173155 91 101 1.0 5.0 0.00 0.00 0.00 65 1019.4
20260901172557 91 53 1.0 5.0 0.00 0.00 0.00 67 1019.4
20260901172058 91 0 2.0 4.0 0.00 0.00 0.00 66 1019.5
20260901171606 90 84 1.0 4.0 0.00 0.00 0.00 69 1019.6
20260901171058 90 84 1.0 6.0 0.00 0.00 0.00 65 1019.6
20260901170558 90 102 2.0 6.0 0.00 0.00 0.00 64 1019.6
20260901170104 91 163 0.0 7.0 0.00 0.00 0.00 64 1019.7
20260901165601 90 82 1.0 7.0 0.00 0.00 0.00 70 1019.6
20260901165058 89 137 1.0 6.0 0.00 0.00 0.00 71 1019.5
20260901164559 89 110 2.0 6.0 0.00 0.00 0.00 71 1019.7
20260901164055 89 0 1.0 4.0 0.00 0.00 0.00 69 1019.8
20260901163559 89 0 0.0 4.0 0.00 0.00 0.00 73 1019.8
20260901163119 89 75 1.0 4.0 0.00 0.00 0.00 73 1019.9
20260901162554 88 96 0.0 4.0 0.00 0.00 0.00 71 1020.0
20260901162058 89 0 0.0 5.0 0.00 0.00 0.00 70 1019.9
20260901161609 88 155 1.0 5.0 0.00 0.00 0.00 67 1019.9
20260901161059 89 128 1.0 7.0 0.00 0.00 0.00 68 1020.0
20260901160558 88 101 1.0 7.0 0.00 0.00 0.00 69 1019.9
20260901160104 89 110 1.0 5.0 0.00 0.00 0.00 72 1019.8
20260901155601 88 144 0.0 3.0 0.00 0.00 0.00 75 1019.9
20260901155103 87 60 0.0 3.0 0.00 0.00 0.00 75 1019.9
20260901154604 87 113 0.0 2.0 0.00 0.00 0.00 75 1020.0
20260901154058 88 53 0.0 2.0 0.00 0.00 0.00 75 1019.9
20260901153556 87 0 0.0 2.0 0.00 0.00 0.00 74 1019.9
20260901153105 87 81 0.0 2.0 0.00 0.00 0.00 77 1020.0
20260901152555 87 0 0.0 2.0 0.00 0.00 0.00 76 1020.0
20260901152055 86 0 0.0 2.0 0.00 0.00 0.00 74 1020.1
20260901151610 87 76 0.0 1.0 0.00 0.00 0.00 79 1020.0
20260901151058 86 0 0.0 2.0 0.00 0.00 0.00 76 1019.9
20260901150558 86 0 0.0 2.0 0.00 0.00 0.00 76 1020.0
20260901145600 85 0 0.0 1.0 0.00 0.00 0.00 79 1020.0
20260901145100 85 0 0.0 3.0 0.00 0.00 0.00 78 1020.1
20260901144600 85 0 0.0 3.0 0.00 0.00 0.00 78 1020.1
20260901144102 85 0 0.0 2.0 0.00 0.00 0.00 79 1020.0
20260901143558 84 0 0.0 3.0 0.00 0.00 0.00 85 1019.9
20260901143110 84 0 0.0 3.0 0.00 0.00 0.00 81 1019.9
20260901142554 84 97 0.0 1.0 0.00 0.00 0.00 83 1020.0
20260901142058 84 0 0.0 2.0 0.00 0.00 0.00 82 1020.1
20260901141614 84 0 0.0 2.0 0.00 0.00 0.00 83 1020.2
20260901141107 83 122 0.0 2.0 0.00 0.00 0.00 87 1020.2
20260901140558 83 0 0.0 1.0 0.00 0.00 0.00 86 1020.1
20260901140107 82 335 0.0 1.0 0.00 0.00 0.00 86 1020.2
20260901135556 82 0 0.0 1.0 0.00 0.00 0.00 86 1020.1
20260901135100 82 354 0.0 1.0 0.00 0.00 0.00 89 1020.1
20260901134606 82 0 0.0 1.0 0.00 0.00 0.00 87 1020.0
20260901134058 81 0 0.0 1.0 0.00 0.00 0.00 92 1020.0
20260901133558 81 0 0.0 1.0 0.00 0.00 0.00 89 1020.0
20260901133106 81 0 0.0 0.0 0.00 0.00 0.00 93 1020.0
20260901132601 81 0 0.0 0.0 0.00 0.00 0.00 89 1020.0
20260901132059 81 0 0.0 1.0 0.00 0.00 0.00 90 1019.9
20260901131609 81 0 0.0 1.0 0.00 0.00 0.00 91 1020.0
20260901131058 80 0 0.0 1.0 0.00 0.00 0.00 95 1020.0
20260901130558 79 0 0.0 1.0 0.00 0.00 0.00 93 1020.0
20260901130108 78 0 0.0 1.0 0.00 0.00 0.00 97 1020.0
20260901125602 77 0 0.0 1.0 0.00 0.00 0.00 97 1020.0
20260901125055 76 0 0.0 1.0 0.00 0.00 0.00 97 1020.0
20260901124601 76 0 0.0 0.0 0.00 0.00 0.00 97 1019.9
20260901124054 75 0 0.0 0.0 0.00 0.00 0.00 97 1019.9
20260901123559 74 0 0.0 0.0 0.00 0.00 0.00 97 1019.9
20260901123101 74 0 0.0 0.0 0.00 0.00 0.00 97 1019.8
20260901122559 74 0 0.0 0.0 0.00 0.00 0.00 97 1019.7
20260901122058 74 0 0.0 0.0 0.00 0.00 0.00 97 1019.7
20260901121607 73 0 0.0 0.0 0.00 0.00 0.00 97 1019.6
20260901121055 73 0 0.0 0.0 0.00 0.00 0.00 97 1019.5
20260901120558 73 0 0.0 0.0 0.00 0.00 0.00 97 1019.5
20260901120111 73 0 0.0 0.0 0.00 0.00 0.00 97 1019.5
20260901115558 73 0 0.0 0.0 0.00 0.00 0.00 97 1019.4
20260901115103 73 0 0.0 0.0 0.00 0.00 0.00 97 1019.3
20260901114605 73 0 0.0 0.0 0.00 0.00 0.00 97 1019.2
20260901114102 73 0 0.0 0.0 0.00 0.00 0.00 97 1019.1
20260901113602 73 0 0.0 0.0 0.00 0.00 0.00 97 1019.0
20260901113103 73 0 0.0 0.0 0.00 0.00 0.00 97 1019.0
20260901112558 73 0 0.0 0.0 0.00 0.00 0.00 97 1019.1
20260901112101 73 0 0.0 0.0 0.00 0.00 0.00 97 1019.0
20260901111604 73 0 0.0 0.0 0.00 0.00 0.00 97 1018.9
20260901111058 73 0 0.0 0.0 0.00 0.00 0.00 97 1018.8
20260901110558 73 0 0.0 0.0 0.00 0.00 0.00 97 1018.8
20260901110108 73 0 0.0 0.0 0.00 0.00 0.00 97 1018.8
20260901105559 73 0 0.0 0.0 0.00 0.00 0.00 97 1018.8
20260901105058 73 0 0.0 0.0 0.00 0.00 0.00 97 1018.7
20260901104602 73 0 0.0 0.0 0.00 0.00 0.00 97 1018.7
20260901104059 73 0 0.0 0.0 0.00 0.00 0.00 97 1018.7
20260901103600 73 0 0.0 0.0 0.00 0.00 0.00 97 1018.7
20260901103103 73 0 0.0 0.0 0.00 0.00 0.00 97 1018.7
20260901102558 73 0 0.0 0.0 0.00 0.00 0.00 97 1018.7
20260901102059 73 0 0.0 0.0 0.00 0.00 0.00 97 1018.5
20260901101608 73 0 0.0 0.0 0.00 0.00 0.00 97 1018.6
20260901101058 73 0 0.0 0.0 0.00 0.00 0.00 97 1018.5
20260901100558 73 0 0.0 0.0 0.00 0.00 0.00 97 1018.5
20260901100109 73 0 0.0 0.0 0.00 0.00 0.00 97 1018.4
20260901095558 73 0 0.0 0.0 0.00 0.00 0.00 97 1018.5
20260901095058 73 0 0.0 0.0 0.00 0.00 0.00 97 1018.3
20260901094600 73 0 0.0 0.0 0.00 0.00 0.00 97 1018.3
20260901094057 73 0 0.0 0.0 0.00 0.00 0.00 97 1018.5
20260901093558 73 0 0.0 0.0 0.00 0.00 0.00 97 1018.3
20260901093112 73 0 0.0 0.0 0.00 0.00 0.00 97 1018.3
20260901092559 73 0 0.0 0.0 0.00 0.00 0.00 97 1018.4
20260901092058 73 0 0.0 0.0 0.00 0.00 0.00 97 1018.4
20260901091606 73 0 0.0 0.0 0.00 0.00 0.00 97 1018.3
20260901091059 74 0 0.0 0.0 0.00 0.00 0.00 97 1018.3
20260901090558 74 0 0.0 0.0 0.00 0.00 0.00 97 1018.3
20260901085558 74 0 0.0 0.0 0.00 0.00 0.00 97 1018.3
20260901085058 74 0 0.0 0.0 0.00 0.00 0.00 97 1018.2
20260901084626 74 0 0.0 0.0 0.00 0.00 0.00 97 1018.2
20260901084058 74 0 0.0 0.0 0.00 0.00 0.00 97 1018.2
20260901083559 73 0 0.0 0.0 0.00 0.00 0.00 97 1018.2
20260901083107 74 0 0.0 0.0 0.00 0.00 0.00 97 1018.2
20260901082559 74 0 0.0 0.0 0.00 0.00 0.00 97 1018.0
20260901082057 74 0 0.0 0.0 0.00 0.00 0.00 97 1018.1
20260901081602 74 0 0.0 0.0 0.00 0.00 0.00 97 1018.1
20260901081058 74 0 0.0 0.0 0.00 0.00 0.00 97 1018.2
20260901080559 74 0 0.0 0.0 0.00 0.00 0.00 97 1018.2
20260901080155 74 0 0.0 0.0 0.00 0.00 0.00 97 1018.1
20260901075559 74 0 0.0 0.0 0.00 0.00 0.00 97 1018.1
20260901075101 74 0 0.0 0.0 0.00 0.00 0.00 97 1018.2
20260901074633 74 0 0.0 0.0 0.00 0.00 0.00 97 1018.2
20260901074058 74 0 0.0 0.0 0.00 0.00 0.00 97 1018.3
20260901073558 74 0 0.0 0.0 0.00 0.00 0.00 97 1018.3
20260901073105 74 0 0.0 0.0 0.00 0.00 0.00 97 1018.1
20260901072602 74 0 0.0 0.0 0.00 0.00 0.00 97 1018.1
20260901072058 74 0 0.0 0.0 0.00 0.00 0.00 97 1018.1
20260901071606 74 0 0.0 0.0 0.00 0.00 0.00 97 1018.1
20260901071058 74 0 0.0 0.0 0.00 0.00 0.00 97 1018.2
20260901070558 75 0 0.0 0.0 0.00 0.00 0.00 97 1018.1
20260901070104 75 0 0.0 0.0 0.00 0.00 0.00 97 1018.1
20260901065602 75 0 0.0 0.0 0.00 0.00 0.00 97 1018.0
20260901065059 75 0 0.0 0.0 0.00 0.00 0.00 97 1018.2
20260901064601 75 0 0.0 0.0 0.00 0.00 0.00 97 1018.3
20260901064102 75 163 0.0 0.0 0.00 0.00 0.00 97 1018.4
20260901063558 75 0 0.0 0.0 0.00 0.00 0.00 96 1018.4
20260901063104 75 0 0.0 0.0 0.00 0.00 0.00 96 1018.5
20260901062600 75 0 0.0 0.0 0.00 0.00 0.00 96 1018.5
20260901062101 75 0 0.0 0.0 0.00 0.00 0.00 96 1018.5
20260901061608 75 0 0.0 0.0 0.00 0.00 0.00 96 1018.6
20260901061058 75 0 0.0 0.0 0.00 0.00 0.00 95 1018.5
20260901060555 75 0 0.0 0.0 0.00 0.00 0.00 96 1018.5
20260901060106 75 0 0.0 0.0 0.00 0.00 0.00 95 1018.6
20260901055558 75 0 0.0 0.0 0.00 0.00 0.00 95 1018.7
20260901055058 75 0 0.0 0.0 0.00 0.00 0.00 95 1018.7
20260901054600 76 0 0.0 0.0 0.00 0.00 0.00 95 1018.7
20260901054100 76 0 0.0 0.0 0.00 0.00 0.00 95 1018.7
20260901053559 76 0 0.0 0.0 0.00 0.00 0.00 95 1018.7
20260901053106 76 0 0.0 0.0 0.00 0.00 0.00 94 1018.6
20260901052559 76 0 0.0 0.0 0.00 0.00 0.00 94 1018.6
20260901052058 76 0 0.0 0.0 0.00 0.00 0.00 94 1018.7
20260901051614 76 0 0.0 0.0 0.00 0.00 0.00 94 1018.7
20260901051059 76 0 0.0 0.0 0.00 0.00 0.00 93 1018.8
20260901050559 77 0 0.0 0.0 0.00 0.00 0.00 93 1018.8
20260901050104 77 0 0.0 0.0 0.00 0.00 0.00 93 1018.8